Weather History for Buckhannon, WV

Change the Weather History Date:

Wednesday, April 2, 2014

  Actual Average (KEKN) Record (KEKN)
Temperature  
Mean Temperature 58 °F 46 °F  
Max Temperature 66 °F 58 °F 89 °F (2010)
Min Temperature 51 °F 33 °F 14 °F (1907)
Degree Days  
Heating Degree Days 6 20  
Month to date heating degree days 40  
Since 1 July heating degree days 5141  
Cooling Degree Days 0 0  
Month to date cooling degree days 0  
Year to date cooling degree days 0  
Growing Degree Days 8 (Base 50)    
Moisture  
Dew Point 37 °F    
Average Humidity 46    
Maximum Humidity 88    
Minimum Humidity 26    
Precipitation  
Precipitation 0.00 in 0.13 in 0.63 in (1964)
Month to date precipitation 0.26  
Year to date precipitation 10.55  
Snow  
Snow 0.00 in - - ()
Month to date snowfall  
Since 1 September snowfall  
Snow Depth -    
Sea Level Pressure  
Sea Level Pressure 30.09 in    
Wind  
Wind Speed 5 mph (North)    
Max Wind Speed 12 mph    
Max Gust Speed 20 mph    
Visibility 10 miles    
Events      
T = Trace of Precipitation, MM = Missing Value Source: NWS Daily Summary

Daily Weather History Graph

Daily Weather History Graph

Search for Another Location

Airport:

Trip Planner

Search our weather history database for the weather conditions in past years. The results will help you decide how hot, cold, wet, or windy it might be!

Date:

Astronomy

Apr. 02, 2014 Rise Set
Actual Time 7:04 AM EDT 7:45 PM EDT
Civil Twilight 6:37 AM EDT 8:12 PM EDT
Nautical Twilight 6:05 AM EDT 8:44 PM EDT
Astronomical Twilight 5:32 AM EDT 9:17 PM EDT
Moon 8:48 AM EDT (4/2) 11:05 PM EDT (4/2)
Length of Visible Light 13h 35m
Length of Day
12h 41m
Waxing Crescent, 10% of the Moon is Illuminated
Apr 2
Waxing Crescent
Apr 7
First Quarter
Apr 15
Full
Apr 22
Last Quarter
Apr 29
New

Hourly Weather History & Observations

Time (EDT) Temp. Dew Point Humidity Pressure Visibility Wind Dir Wind Speed Gust Speed Precip Events Conditions
12:15 AM 64.4 °F 32.0 °F 30% 30.05 in 10.0 mi WSW 6.9 mph - N/A   Clear
12:35 AM 64.4 °F 32.0 °F 30% 30.05 in 10.0 mi NW 4.6 mph - N/A   Clear
12:55 AM 60.8 °F 32.0 °F 34% 30.06 in 10.0 mi NNW 8.1 mph 19.6 mph N/A   Clear
1:15 AM 62.6 °F 28.4 °F 27% 30.05 in 10.0 mi NW 3.5 mph - N/A   Clear
1:35 AM 62.6 °F 26.6 °F 26% 30.05 in 10.0 mi Calm Calm - N/A   Clear
1:55 AM 62.6 °F 26.6 °F 26% 30.05 in 10.0 mi Calm Calm - N/A   Clear
2:15 AM 60.8 °F 26.6 °F 27% 30.06 in 10.0 mi Calm Calm - N/A   Partly Cloudy
2:35 AM 60.8 °F 26.6 °F 27% 30.06 in 10.0 mi Calm Calm - N/A   Scattered Clouds
2:55 AM 57.2 °F 30.2 °F 36% 30.03 in 10.0 mi NE 4.6 mph - N/A   Light Drizzle
3:15 AM 57.2 °F 30.2 °F 36% 30.04 in 10.0 mi Calm Calm - N/A   Partly Cloudy
3:35 AM 57.2 °F 28.4 °F 33% 30.04 in 10.0 mi Calm Calm - N/A   Partly Cloudy
3:55 AM 59.0 °F 26.6 °F 29% 30.04 in 10.0 mi Calm Calm - N/A   Mostly Cloudy
4:15 AM 55.4 °F 32.0 °F 41% 30.05 in 10.0 mi NNW 3.5 mph - N/A   Mostly Cloudy
4:35 AM 53.6 °F 32.0 °F 44% 30.06 in 10.0 mi NNW 6.9 mph - N/A   Mostly Cloudy
4:55 AM 57.2 °F 24.8 °F 29% 30.04 in 10.0 mi NNW 5.8 mph - N/A   Partly Cloudy
5:15 AM 55.4 °F 26.6 °F 33% 30.04 in 10.0 mi NNW 3.5 mph - N/A   Clear
5:35 AM 55.4 °F 26.6 °F 33% 30.06 in 10.0 mi North 5.8 mph - N/A   Partly Cloudy
5:55 AM 53.6 °F 26.6 °F 35% 30.08 in 10.0 mi NNW 10.4 mph - N/A   Partly Cloudy
6:15 AM 53.6 °F 28.4 °F 38% 30.10 in 10.0 mi NNW 8.1 mph - N/A   Scattered Clouds
6:35 AM 53.6 °F 30.2 °F 41% 30.10 in 10.0 mi North 10.4 mph 19.6 mph N/A   Scattered Clouds
6:55 AM 53.6 °F 30.2 °F 41% 30.10 in 10.0 mi North 6.9 mph - N/A   Scattered Clouds
7:15 AM 53.6 °F 30.2 °F 41% 30.10 in 10.0 mi North 4.6 mph - N/A   Partly Cloudy
8:35 AM 53.6 °F 32.0 °F 44% 30.12 in 10.0 mi ENE 5.8 mph - N/A   Clear
8:55 AM 53.6 °F 32.0 °F 44% 30.12 in 10.0 mi East 8.1 mph - N/A   Partly Cloudy
9:15 AM 53.6 °F 33.8 °F 47% 30.14 in 10.0 mi North 11.5 mph 17.3 mph N/A   Clear
9:35 AM 53.6 °F 33.8 °F 47% 30.15 in 10.0 mi NNE 8.1 mph - N/A   Clear
9:55 AM 55.4 °F 33.8 °F 44% 30.14 in 10.0 mi NE 6.9 mph - N/A   Clear
10:15 AM 55.4 °F 35.6 °F 47% 30.14 in 10.0 mi ESE 6.9 mph - N/A   Clear
10:35 AM 55.4 °F 35.6 °F 47% 30.14 in 10.0 mi NNE 4.6 mph - N/A   Partly Cloudy
10:55 AM 57.2 °F 35.6 °F 44% 30.15 in 10.0 mi NE 3.5 mph - N/A   Scattered Clouds
11:15 AM 59.0 °F 35.6 °F 42% 30.15 in 10.0 mi North 5.8 mph - N/A   Partly Cloudy
11:35 AM 60.8 °F 35.6 °F 39% 30.15 in 10.0 mi NNE 4.6 mph - N/A   Mostly Cloudy
11:55 AM 60.8 °F 37.4 °F 42% 30.14 in 10.0 mi WNW 3.5 mph - N/A   Scattered Clouds
12:35 PM 60.8 °F 37.4 °F 42% 30.14 in 10.0 mi NW 4.6 mph - N/A   Partly Cloudy
12:55 PM 62.6 °F 39.2 °F 42% 30.13 in 10.0 mi Calm Calm - N/A   Clear
1:15 PM 62.6 °F 37.4 °F 39% 30.12 in 10.0 mi Calm Calm - N/A   Clear
1:55 PM 64.4 °F 39.2 °F 40% 30.11 in 10.0 mi Calm Calm - N/A   Clear
2:15 PM 64.4 °F 37.4 °F 37% 30.12 in 10.0 mi NNW 5.8 mph - N/A   Clear
2:35 PM 64.4 °F 39.2 °F 40% 30.11 in 10.0 mi Calm Calm - N/A   Clear
2:55 PM 64.4 °F 39.2 °F 40% 30.10 in 10.0 mi WSW 5.8 mph - N/A   Clear
3:15 PM 64.4 °F 39.2 °F 40% 30.09 in 10.0 mi Calm Calm - N/A   Clear
3:35 PM 64.4 °F 39.2 °F 40% 30.09 in 10.0 mi South 4.6 mph - N/A   Clear
3:55 PM 64.4 °F 39.2 °F 40% 30.08 in 10.0 mi South 3.5 mph - N/A   Clear
4:15 PM 66.2 °F 39.2 °F 37% 30.08 in 10.0 mi NW 4.6 mph - N/A   Clear
4:35 PM 66.2 °F 39.2 °F 37% 30.09 in 10.0 mi Calm Calm - N/A   Mostly Cloudy
4:55 PM 66.2 °F 39.2 °F 37% 30.08 in 10.0 mi Calm Calm - N/A   Mostly Cloudy
5:15 PM 64.4 °F 41.0 °F 42% 30.09 in 10.0 mi North 8.1 mph - N/A   Mostly Cloudy
5:35 PM 64.4 °F 44.6 °F 49% 30.09 in 10.0 mi North 10.4 mph - N/A   Partly Cloudy
6:15 PM 62.6 °F 44.6 °F 52% 30.08 in 10.0 mi North 8.1 mph - N/A   Clear
6:35 PM 62.6 °F 44.6 °F 52% 30.08 in 10.0 mi North 8.1 mph - N/A   Clear
6:55 PM 60.8 °F 44.6 °F 55% 30.08 in 10.0 mi NNE 5.8 mph - N/A   Clear
7:15 PM 59.0 °F 44.6 °F 59% 30.08 in 10.0 mi NNE 8.1 mph - N/A   Clear
7:35 PM 59.0 °F 44.6 °F 59% 30.09 in 10.0 mi NNE 6.9 mph - N/A   Clear
7:55 PM 57.2 °F 44.6 °F 63% 30.09 in 10.0 mi NNE 6.9 mph - N/A   Clear
8:15 PM 57.2 °F 46.4 °F 67% 30.10 in 10.0 mi NNE 4.6 mph - N/A   Scattered Clouds
8:35 PM 57.2 °F 46.4 °F 67% 30.10 in 10.0 mi NNE 6.9 mph - N/A   Partly Cloudy
8:55 PM 55.4 °F 46.4 °F 72% 30.10 in 10.0 mi NNE 4.6 mph - N/A   Clear
9:15 PM 55.4 °F 46.4 °F 72% 30.11 in 10.0 mi NNE 5.8 mph - N/A   Partly Cloudy
9:35 PM 55.4 °F 44.6 °F 67% 30.11 in 10.0 mi NNE 3.5 mph - N/A   Partly Cloudy
9:55 PM 55.4 °F 44.6 °F 67% 30.12 in 10.0 mi North 6.9 mph - N/A   Scattered Clouds
10:15 PM 55.4 °F 44.6 °F 67% 30.12 in 10.0 mi North 5.8 mph - N/A   Light Drizzle
10:35 PM 55.4 °F 44.6 °F 67% 30.12 in 10.0 mi Calm Calm - N/A   Scattered Clouds
10:55 PM 55.4 °F 44.6 °F 67% 30.13 in 9.0 mi Calm Calm - N/A   Light Drizzle
11:15 PM 53.6 °F 46.4 °F 77% 30.12 in 10.0 mi Calm Calm - N/A   Mostly Cloudy
11:35 PM 51.8 °F 48.2 °F 88% 30.11 in 9.0 mi Calm Calm - N/A   Mostly Cloudy
11:55 PM 51.8 °F 48.2 °F 88% 30.10 in 10.0 mi SE 4.6 mph - N/A   Scattered Clouds